Powrót do katalogu

COSMOS 1275 DEB

AktywnyPO
NORAD 12769·DEBRIS·🇷🇺 Russia

Wystrzelony Jun 4, 1981 z Plesetsk Cosmodrome

Loading…

Następne Przeloty (najbliższe 24 godziny)

TLE

ŚwieżeSource: Space-Track

Epoka: Sep 14, 2026, 11:42 UTC

1 12769U 81053DN  26257.48769896  .00000361  00000-0  36094-3 0  9996
2 12769  82.8175  76.6211 0070288 121.3788 268.0089 13.74117498254263

Śledź COSMOS 1275 DEB w czasie rzeczywistym z AllMySat

Download on the App Store